Location: Beccas
(43.4309°N, 0.1528°E)
Time: 15:46:00
(UTC+00:00)

Transit 2A Rocket - Pass Details

Date: 29 May 2022
Orbit: 594 x 907 km, 66.7° (Epoch: 03 July)

Event Time Altitude Azimuth Distance (km) Brightness Sun altitude
Rises 21:43:54 0° 324° (NW) 2,904 9.7 -18.0°
Reaches altitude 10° 21:46:15 10° 318° (NW) 1,967 8.4 -18.3°
Maximum altitude 21:50:28 48° 245° (WSW) 778 5.0 -18.7°
Enters shadow 21:51:54 34° 193° (SSW) 987 5.2 -18.8°
